,,PA_Meas_PMT16A,,PR_Meas_QMR101_102,,RH_Meas_QMH101,,SR_Meas_QMS101,,TA_Meas_QMH101,,GenWind,,GenWind,
time,status,PA,status,PR,status,RH,status,SR,status,TA,status,DirAvg,status,SpdAvg,
2009-09-30, 00:00:04,VALID,916.583,VALID,0,VALID,95.8492,VALID,0,VALID,20.2668,VALID,16,VALID,1.14297,
2009-09-30, 00:01:04,VALID,916.569,VALID,0,VALID,95.9026,VALID,0,VALID,20.2668,VALID,16,VALID,1.01914,
2009-09-30, 00:02:05,VALID,916.547,VALID,0,VALID,96.0169,VALID,0,VALID,20.2489,VALID,16,VALID,0.797656,
2009-09-30, 00:03:05,VALID,916.54,VALID,0,VALID,96.0398,VALID,0,VALID,20.2083,VALID,16,VALID,0.565234,
2009-09-30, 00:04:05,VALID,916.56,VALID,0,VALID,96.1541,VALID,0,VALID,20.2278,VALID,16,VALID,0.350781,
2009-09-30, 00:05:05,VALID,916.56,VALID,0,VALID,96.2837,VALID,0,VALID,20.2473,VALID,16,VALID,0.440625,
2009-09-30, 00:06:05,VALID,916.558,VALID,0,VALID,96.3295,VALID,0,VALID,20.2473,VALID,16,VALID,0.360547,
2009-09-30, 00:07:05,VALID,916.592,VALID,0,VALID,96.3295,VALID,0,VALID,20.2473,VALID,16,VALID,0.401563,
2009-09-30, 00:08:05,VALID,916.575,VALID,0,VALID,96.2685,VALID,0,VALID,20.2263,VALID,16,VALID,0.465625,
2009-09-30, 00:09:05,VALID,916.581,VALID,0,VALID,96.3219,VALID,0,VALID,20.2473,VALID,16,VALID,0.199609,
2009-09-30, 00:10:05,VALID,916.543,VALID,0,VALID,96.3752,VALID,0,VALID,20.2458,VALID,16,VALID,0,
2009-09-30, 00:11:05,VALID,916.53,VALID,0,VALID,96.5124,VALID,0,VALID,20.3238,VALID,16,VALID,0,
2009-09-30, 00:12:05,VALID,916.48,VALID,0,VALID,96.4743,VALID,0,VALID,20.3253,VALID,16,VALID,0,
2009-09-30, 00:13:05,VALID,916.493,VALID,0,VALID,96.36,VALID,0,VALID,20.3058,VALID,16,VALID,0,
2009-09-30, 00:14:05,VALID,916.463,VALID,0,VALID,96.3829,VALID,0,VALID,20.3253,VALID,16,VALID,0,
2009-09-30, 00:15:05,VALID,916.494,VALID,0,VALID,96.3371,VALID,0,VALID,20.3253,VALID,16,VALID,0,
2009-09-30, 00:16:05,VALID,916.484,VALID,0,VALID,96.2685,VALID,0,VALID,20.3448,VALID,16,VALID,0,
2009-09-30, 00:17:05,VALID,916.474,VALID,0,VALID,96.177,VALID,0,VALID,20.3043,VALID,16,VALID,0.509375,
2009-09-30, 00:18:05,VALID,916.447,VALID,0,VALID,96.0627,VALID,0,VALID,20.3058,VALID,16,VALID,0.464453,
2009-09-30, 00:19:05,VALID,916.462,VALID,0,VALID,96.0932,VALID,0,VALID,20.3058,VALID,16,VALID,0.483984,
2009-09-30, 00:20:05,VALID,916.49,VALID,0,VALID,96.0627,VALID,0,VALID,20.3253,VALID,16,VALID,0.292969,
2009-09-30, 00:21:05,VALID,916.509,VALID,0,VALID,96.1008,VALID,0,VALID,20.3253,VALID,16,VALID,0.335547,
2009-09-30, 00:22:05,VALID,916.52,VALID,0,VALID,96.1389,VALID,0,VALID,20.3253,VALID,16,VALID,0.362891,
2009-09-30, 00:23:05,VALID,916.54,VALID,0,VALID,96.1236,VALID,0.107441,VALID,20.3043,VALID,16,VALID,0.308203,
2009-09-30, 00:24:05,VALID,916.547,VALID,0,VALID,96.1694,VALID,0,VALID,20.3238,VALID,16,VALID,0.203125,
2009-09-30, 00:25:05,VALID,916.588,VALID,0,VALID,96.2151,VALID,0,VALID,20.3027,VALID,16,VALID,0.265234,
2009-09-30, 00:26:05,VALID,916.601,VALID,0,VALID,96.2685,VALID,0,VALID,20.3238,VALID,16,VALID,0.108594,
2009-09-30, 00:27:05,VALID,916.608,VALID,0,VALID,96.238,VALID,0,VALID,20.3433,VALID,16,VALID,0.4625,
2009-09-30, 00:28:05,VALID,916.61,VALID,0,VALID,96.2533,VALID,0.107441,VALID,20.3417,VALID,16,VALID,0.314453,
2009-09-30, 00:29:05,VALID,916.583,VALID,0,VALID,96.2609,VALID,0.107441,VALID,20.3823,VALID,16,VALID,0.196094,
2009-09-30, 00:30:05,VALID,916.568,VALID,0,VALID,96.1236,VALID,0.107441,VALID,20.3612,VALID,16,VALID,0.0191406,
2009-09-30, 00:31:05,VALID,916.542,VALID,0,VALID,96.0398,VALID,0.107441,VALID,20.3823,VALID,16,VALID,0.166797,
2009-09-30, 00:32:05,VALID,916.522,VALID,0,VALID,95.9864,VALID,0,VALID,20.3823,VALID,16,VALID,0.193359,
2009-09-30, 00:33:05,VALID,916.502,VALID,0,VALID,95.895,VALID,0.107441,VALID,20.3628,VALID,16,VALID,0.354297,
2009-09-30, 00:34:05,VALID,916.461,VALID,0,VALID,95.8111,VALID,0.107441,VALID,20.3823,VALID,16,VALID,0.274219,
2009-09-30, 00:35:05,VALID,916.427,VALID,0,VALID,95.7958,VALID,0.107441,VALID,20.3628,VALID,16,VALID,0.163281,
2009-09-30, 00:36:05,VALID,916.412,VALID,0,VALID,95.7501,VALID,0.107441,VALID,20.3628,VALID,16,VALID,0.416016,
2009-09-30, 00:37:05,VALID,916.372,VALID,0,VALID,95.712,VALID,0,VALID,20.4018,VALID,16,VALID,0.246484,
2009-09-30, 00:38:05,VALID,916.376,VALID,0,VALID,95.6053,VALID,0,VALID,20.4033,VALID,16,VALID,0.435937,
2009-09-30, 00:39:05,VALID,916.358,VALID,0,VALID,95.4452,VALID,0,VALID,20.4033,VALID,16,VALID,0.344922,
2009-09-30, 00:40:05,VALID,916.316,VALID,0,VALID,95.4223,VALID,0,VALID,20.3628,VALID,16,VALID,0.203125,
2009-09-30, 00:41:05,VALID,916.301,VALID,0,VALID,95.5671,VALID,0,VALID,20.4033,VALID,16,VALID,0.0941406,
2009-09-30, 00:42:05,VALID,916.263,VALID,0,VALID,95.5138,VALID,0,VALID,20.4033,VALID,16,VALID,0.292578,
2009-09-30, 00:43:05,VALID,916.287,VALID,0,VALID,95.5976,VALID,0,VALID,20.4018,VALID,16,VALID,0.307031,
2009-09-30, 00:44:05,VALID,916.27,VALID,0,VALID,95.7806,VALID,0,VALID,20.4423,VALID,16,VALID,0.264062,
2009-09-30, 00:45:05,VALID,916.27,VALID,0,VALID,95.6129,VALID,0,VALID,20.4228,VALID,16,VALID,0.255859,
2009-09-30, 00:46:05,VALID,916.248,VALID,0,VALID,95.6586,VALID,0,VALID,20.4213,VALID,16,VALID,0.191797,
2009-09-30, 00:47:05,VALID,916.244,VALID,0,VALID,95.6281,VALID,0,VALID,20.4213,VALID,16,VALID,0.2375,
2009-09-30, 00:48:05,VALID,916.215,VALID,0,VALID,95.7425,VALID,0,VALID,20.4813,VALID,16,VALID,0.378516,
2009-09-30, 00:49:05,VALID,916.199,VALID,0.2,VALID,95.7501,VALID,0,VALID,20.4813,VALID,16,VALID,0.243359,
2009-09-30, 00:50:05,VALID,916.183,VALID,0.2,VALID,95.8568,VALID,0,VALID,20.5009,VALID,16,VALID,0.0195313,
2009-09-30, 00:51:05,VALID,916.183,VALID,0.2,VALID,95.712,VALID,0,VALID,20.5009,VALID,16,VALID,0,
2009-09-30, 00:52:05,VALID,916.182,VALID,0,VALID,95.5519,VALID,0,VALID,20.4618,VALID,16,VALID,0,
2009-09-30, 00:53:05,VALID,916.164,VALID,0,VALID,95.5367,VALID,0,VALID,20.4408,VALID,16,VALID,0,
2009-09-30, 00:54:05,VALID,916.155,VALID,0,VALID,95.6739,VALID,0,VALID,20.4618,VALID,16,VALID,0,
2009-09-30, 00:55:05,VALID,916.155,VALID,0,VALID,95.59,VALID,0,VALID,20.4228,VALID,16,VALID,0,
2009-09-30, 00:56:05,VALID,916.129,VALID,0.2,VALID,95.8263,VALID,0,VALID,20.4423,VALID,16,VALID,0.435156,
2009-09-30, 00:57:05,VALID,916.114,VALID,0,VALID,95.9102,VALID,0,VALID,20.4018,VALID,16,VALID,0.626172,
2009-09-30, 00:58:05,VALID,916.104,VALID,0,VALID,96.0322,VALID,0,VALID,20.4033,VALID,16,VALID,0.573828,
2009-09-30, 00:59:05,VALID,916.106,VALID,0,VALID,96.0398,VALID,0,VALID,20.3838,VALID,16,VALID,0.593359,
2009-09-30, 01:00:05,VALID,916.086,VALID,0,VALID,96.177,VALID,0,VALID,20.3823,VALID,16,VALID,0.480469,
2009-09-30, 01:01:05,VALID,916.033,VALID,0.2,VALID,96.1084,VALID,0,VALID,20.3433,VALID,16,VALID,0.701953,
2009-09-30, 01:02:05,VALID,916,VALID,0,VALID,96.0322,VALID,0,VALID,20.3043,VALID,16,VALID,0.794531,
2009-09-30, 01:03:05,VALID,915.986,VALID,0,VALID,96.0779,VALID,0,VALID,20.3058,VALID,16,VALID,1.06484,
2009-09-30, 01:04:05,VALID,915.966,VALID,0,VALID,96.1541,VALID,0,VALID,20.2653,VALID,16,VALID,0.961328,
2009-09-30, 01:05:05,VALID,915.961,VALID,0,VALID,96.1694,VALID,0,VALID,20.2653,VALID,16,VALID,0.713672,
2009-09-30, 01:06:05,VALID,915.957,VALID,0,VALID,96.2151,VALID,0,VALID,20.2458,VALID,16,VALID,0.648438,
2009-09-30, 01:07:05,VALID,915.908,VALID,0,VALID,96.3905,VALID,0,VALID,20.2653,VALID,16,VALID,0.7375,
2009-09-30, 01:08:05,VALID,915.909,VALID,0,VALID,96.2761,VALID,0,VALID,20.2653,VALID,16,VALID,0.792188,
2009-09-30, 01:09:05,VALID,915.885,VALID,0,VALID,96.5124,VALID,0,VALID,20.3043,VALID,16,VALID,0.671484,
2009-09-30, 01:10:05,VALID,915.868,VALID,0,VALID,96.3295,VALID,0.107441,VALID,20.2848,VALID,16,VALID,0.835938,
2009-09-30, 01:11:05,VALID,915.894,VALID,0,VALID,96.2914,VALID,0.107441,VALID,20.2458,VALID,16,VALID,0.852344,
2009-09-30, 01:12:05,VALID,915.855,VALID,0,VALID,96.2609,VALID,0,VALID,20.2668,VALID,16,VALID,0.695703,
2009-09-30, 01:13:05,VALID,915.867,VALID,0.2,VALID,96.2837,VALID,0,VALID,20.2263,VALID,16,VALID,0.803906,
2009-09-30, 01:14:05,VALID,915.826,VALID,0,VALID,96.4362,VALID,0,VALID,20.2458,VALID,32,VALID,1.06328,
2009-09-30, 01:15:05,VALID,915.827,VALID,0,VALID,96.3752,VALID,0,VALID,20.2278,VALID,32,VALID,0.910156,
2009-09-30, 01:16:05,VALID,915.848,VALID,0,VALID,96.5201,VALID,0,VALID,20.2068,VALID,32,VALID,0.453516,
2009-09-30, 01:17:05,VALID,915.841,VALID,0,VALID,96.5124,VALID,0,VALID,20.2263,VALID,32,VALID,0.585938,
2009-09-30, 01:18:05,VALID,915.807,VALID,0,VALID,96.5582,VALID,0,VALID,20.2068,VALID,32,VALID,0.503906,
2009-09-30, 01:19:05,VALID,915.761,VALID,0,VALID,96.5277,VALID,0,VALID,20.2278,VALID,32,VALID,0.596875,
2009-09-30, 01:20:05,VALID,915.766,VALID,0,VALID,96.4972,VALID,0,VALID,20.2083,VALID,32,VALID,0.473047,
2009-09-30, 01:21:05,VALID,915.729,VALID,0,VALID,96.6268,VALID,0,VALID,20.1873,VALID,32,VALID,0.698828,
2009-09-30, 01:22:05,VALID,915.735,VALID,0,VALID,96.5963,VALID,0,VALID,20.1873,VALID,32,VALID,0.969141,
2009-09-30, 01:23:05,VALID,915.678,VALID,0,VALID,96.642,VALID,0.107441,VALID,20.1873,VALID,32,VALID,0.771875,
2009-09-30, 01:24:05,VALID,915.71,VALID,0,VALID,96.6725,VALID,0,VALID,20.2083,VALID,32,VALID,0.789063,
2009-09-30, 01:25:05,VALID,915.696,VALID,0.2,VALID,96.6192,VALID,0,VALID,20.1873,VALID,32,VALID,0.569531,
2009-09-30, 01:26:05,VALID,915.67,VALID,0,VALID,96.6344,VALID,0,VALID,20.1873,VALID,32,VALID,0.470313,
2009-09-30, 01:27:05,VALID,915.667,VALID,0,VALID,96.6497,VALID,0,VALID,20.2068,VALID,32,VALID,0.466406,
2009-09-30, 01:28:05,VALID,915.651,VALID,0,VALID,96.6344,VALID,0,VALID,20.1678,VALID,32,VALID,0.463672,
2009-09-30, 01:29:05,VALID,915.608,VALID,0,VALID,96.6725,VALID,0,VALID,20.1873,VALID,32,VALID,0.314453,
2009-09-30, 01:30:05,VALID,915.587,VALID,0,VALID,96.6344,VALID,0,VALID,20.1678,VALID,32,VALID,0.138672,
2009-09-30, 01:31:05,VALID,915.573,VALID,0,VALID,96.6573,VALID,0,VALID,20.2083,VALID,32,VALID,0.230859,
2009-09-30, 01:32:05,VALID,915.519,VALID,0,VALID,96.6725,VALID,0,VALID,20.2083,VALID,32,VALID,0.333594,
2009-09-30, 01:33:05,VALID,915.536,VALID,0,VALID,96.6268,VALID,0,VALID,20.2083,VALID,32,VALID,0.460938,
2009-09-30, 01:34:05,VALID,915.492,VALID,0,VALID,96.6115,VALID,0,VALID,20.2083,VALID,32,VALID,0.688281,
2009-09-30, 01:35:05,VALID,915.493,VALID,0,VALID,96.6268,VALID,0,VALID,20.2083,VALID,32,VALID,0.828516,
2009-09-30, 01:36:05,VALID,915.449,VALID,0,VALID,96.6725,VALID,0,VALID,20.2083,VALID,32,VALID,0.862109,
2009-09-30, 01:37:05,VALID,915.421,VALID,0,VALID,96.6878,VALID,0,VALID,20.2083,VALID,32,VALID,0.638281,
2009-09-30, 01:38:05,VALID,915.395,VALID,0,VALID,96.6039,VALID,0,VALID,20.1693,VALID,32,VALID,0.792578,
2009-09-30, 01:39:05,VALID,915.366,VALID,0,VALID,96.6497,VALID,0,VALID,20.1693,VALID,32,VALID,0.726172,
2009-09-30, 01:40:05,VALID,915.305,VALID,0,VALID,96.6115,VALID,0.107441,VALID,20.1093,VALID,32,VALID,0.816797,
2009-09-30, 01:41:05,VALID,915.266,VALID,0,VALID,96.6878,VALID,0,VALID,20.1093,VALID,32,VALID,0.623047,
2009-09-30, 01:42:05,VALID,915.222,VALID,0,VALID,96.6802,VALID,0,VALID,20.0898,VALID,32,VALID,0.617188,
2009-09-30, 01:43:05,VALID,915.22,VALID,0,VALID,96.703,VALID,0,VALID,20.0703,VALID,32,VALID,0.591016,
2009-09-30, 01:44:05,VALID,915.173,VALID,0,VALID,96.764,VALID,0,VALID,20.0703,VALID,32,VALID,0.195313,
2009-09-30, 01:45:05,VALID,915.195,VALID,0,VALID,96.7793,VALID,0,VALID,20.0898,VALID,32,VALID,0.431641,
2009-09-30, 01:46:05,VALID,915.186,VALID,0,VALID,96.8326,VALID,0,VALID,20.0703,VALID,32,VALID,0.496094,
2009-09-30, 01:47:05,VALID,915.182,VALID,0,VALID,96.8707,VALID,0,VALID,20.0898,VALID,32,VALID,0.483203,
2009-09-30, 01:48:05,VALID,915.186,VALID,0,VALID,96.9089,VALID,0,VALID,20.1303,VALID,32,VALID,0.583203,
2009-09-30, 01:49:05,VALID,915.164,VALID,0,VALID,96.886,VALID,0,VALID,20.1303,VALID,32,VALID,0.564062,
2009-09-30, 01:50:05,VALID,915.162,VALID,0,VALID,96.8784,VALID,0,VALID,20.0898,VALID,32,VALID,0.687109,
2009-09-30, 01:51:05,VALID,915.141,VALID,0,VALID,96.8707,VALID,0,VALID,20.0703,VALID,32,VALID,0.897656,
2009-09-30, 01:52:05,VALID,915.193,VALID,0,VALID,97.008,VALID,0,VALID,20.1093,VALID,32,VALID,0.791797,
2009-09-30, 01:53:05,VALID,915.209,VALID,0,VALID,96.9698,VALID,0,VALID,20.1303,VALID,32,VALID,0.695313,
2009-09-30, 01:54:05,VALID,915.239,VALID,0,VALID,96.9775,VALID,0.107441,VALID,20.1693,VALID,32,VALID,0.662891,
2009-09-30, 01:55:05,VALID,915.245,VALID,0,VALID,96.9698,VALID,0,VALID,20.1483,VALID,32,VALID,0.701172,
2009-09-30, 01:56:05,VALID,915.287,VALID,0,VALID,96.9394,VALID,0,VALID,20.1288,VALID,32,VALID,0.591016,
2009-09-30, 01:57:05,VALID,915.27,VALID,0,VALID,96.947,VALID,0,VALID,20.1483,VALID,32,VALID,0.491797,
2009-09-30, 01:58:05,VALID,915.297,VALID,0,VALID,97.0232,VALID,0,VALID,20.1483,VALID,32,VALID,0.107813,
2009-09-30, 01:59:05,VALID,915.265,VALID,0,VALID,97.0537,VALID,0,VALID,20.2083,VALID,32,VALID,0.129688,
2009-09-30, 02:00:05,VALID,915.233,VALID,0,VALID,97.0537,VALID,0,VALID,20.2083,VALID,32,VALID,0.137891,
2009-09-30, 02:01:05,VALID,915.209,VALID,0,VALID,97.0766,VALID,0.107441,VALID,20.2263,VALID,32,VALID,0.0351563,
2009-09-30, 02:02:05,VALID,915.223,VALID,0,VALID,97.0461,VALID,0,VALID,20.2263,VALID,32,VALID,0.157422,
2009-09-30, 02:03:05,VALID,915.185,VALID,0,VALID,97.0232,VALID,0,VALID,20.2263,VALID,32,VALID,0.241406,
2009-09-30, 02:04:05,VALID,915.208,VALID,0,VALID,97.0537,VALID,0,VALID,20.2458,VALID,32,VALID,0.144141,
2009-09-30, 02:05:05,VALID,915.216,VALID,0,VALID,97.0613,VALID,0,VALID,20.2263,VALID,32,VALID,0.178906,
2009-09-30, 02:06:05,VALID,915.199,VALID,0,VALID,97.0385,VALID,0,VALID,20.2263,VALID,32,VALID,0.133203,
2009-09-30, 02:07:05,VALID,915.214,VALID,0,VALID,97.1071,VALID,0,VALID,20.2668,VALID,32,VALID,0.166797,
2009-09-30, 02:08:05,VALID,915.221,VALID,0,VALID,97.1299,VALID,0,VALID,20.3058,VALID,32,VALID,0,
2009-09-30, 02:09:05,VALID,915.25,VALID,0,VALID,97.1223,VALID,0,VALID,20.3058,VALID,32,VALID,0,
2009-09-30, 02:10:05,VALID,915.243,VALID,0,VALID,97.1452,VALID,0,VALID,20.3253,VALID,32,VALID,0,
2009-09-30, 02:11:05,VALID,915.243,VALID,0,VALID,97.1528,VALID,0,VALID,20.3448,VALID,32,VALID,0,
2009-09-30, 02:12:05,VALID,915.219,VALID,0,VALID,97.1299,VALID,0,VALID,20.3628,VALID,32,VALID,0,
2009-09-30, 02:13:05,VALID,915.236,VALID,0,VALID,97.069,VALID,0,VALID,20.3643,VALID,32,VALID,0,
2009-09-30, 02:14:05,VALID,915.217,VALID,0,VALID,97.0918,VALID,0,VALID,20.3448,VALID,32,VALID,0,
2009-09-30, 02:15:05,VALID,915.227,VALID,0,VALID,97.0308,VALID,0,VALID,20.3253,VALID,32,VALID,0.505859,
2009-09-30, 02:16:05,VALID,915.224,VALID,0,VALID,97.0232,VALID,0,VALID,20.2863,VALID,32,VALID,0.481641,
2009-09-30, 02:17:05,VALID,915.249,VALID,0,VALID,97.0308,VALID,0,VALID,20.2863,VALID,32,VALID,0.545313,
2009-09-30, 02:18:05,VALID,915.287,VALID,0,VALID,97.069,VALID,0,VALID,20.2458,VALID,32,VALID,0.307031,
2009-09-30, 02:19:05,VALID,915.255,VALID,0,VALID,97.069,VALID,0,VALID,20.2863,VALID,32,VALID,0.534375,
2009-09-30, 02:20:05,VALID,915.271,VALID,0,VALID,97.0766,VALID,0,VALID,20.2458,VALID,32,VALID,0.0382813,
2009-09-30, 02:21:05,VALID,915.268,VALID,0,VALID,97.0994,VALID,0,VALID,20.2863,VALID,32,VALID,0.265625,
2009-09-30, 02:22:05,VALID,915.296,VALID,0,VALID,97.1223,VALID,0,VALID,20.2863,VALID,32,VALID,0.312891,
2009-09-30, 02:23:05,VALID,915.275,VALID,0,VALID,97.1147,VALID,0,VALID,20.2863,VALID,32,VALID,0.0277344,
2009-09-30, 02:24:05,VALID,915.281,VALID,0,VALID,97.1604,VALID,0,VALID,20.3058,VALID,32,VALID,0.00078125,
2009-09-30, 02:25:05,VALID,915.294,VALID,0,VALID,97.1909,VALID,0,VALID,20.3448,VALID,32,VALID,0.226172,
2009-09-30, 02:26:05,VALID,915.326,VALID,0,VALID,97.1909,VALID,0,VALID,20.3433,VALID,32,VALID,0.065625,
2009-09-30, 02:27:05,VALID,915.335,VALID,0,VALID,97.1833,VALID,0,VALID,20.3643,VALID,32,VALID,0.0847656,
2009-09-30, 02:28:05,VALID,915.306,VALID,0,VALID,97.2138,VALID,0,VALID,20.3823,VALID,32,VALID,0.241406,
2009-09-30, 02:29:05,VALID,915.293,VALID,0,VALID,97.1757,VALID,0,VALID,20.4018,VALID,32,VALID,0.134375,
2009-09-30, 02:30:05,VALID,915.318,VALID,0,VALID,97.0537,VALID,0,VALID,20.3823,VALID,32,VALID,0.245703,
2009-09-30, 02:31:05,VALID,915.361,VALID,0,VALID,97.1147,VALID,0,VALID,20.3643,VALID,32,VALID,0.0371094,
2009-09-30, 02:32:05,VALID,915.328,VALID,0,VALID,97.1757,VALID,0,VALID,20.3838,VALID,32,VALID,0.165234,
2009-09-30, 02:33:05,VALID,915.335,VALID,0,VALID,97.1681,VALID,0,VALID,20.4033,VALID,32,VALID,0.210547,
2009-09-30, 02:34:05,VALID,915.334,VALID,0,VALID,97.1452,VALID,0,VALID,20.3823,VALID,32,VALID,0.269141,
2009-09-30, 02:35:05,VALID,915.31,VALID,0,VALID,97.1452,VALID,0,VALID,20.4033,VALID,32,VALID,0,
2009-09-30, 02:36:05,VALID,915.301,VALID,0,VALID,97.1681,VALID,0,VALID,20.4423,VALID,32,VALID,0,
2009-09-30, 02:37:05,VALID,915.297,VALID,0,VALID,97.1833,VALID,0,VALID,20.4408,VALID,32,VALID,0,
2009-09-30, 02:38:05,VALID,915.332,VALID,0,VALID,97.1604,VALID,0,VALID,20.4213,VALID,32,VALID,0,
2009-09-30, 02:39:05,VALID,915.337,VALID,0,VALID,97.1452,VALID,0,VALID,20.4423,VALID,32,VALID,0.207422,
2009-09-30, 02:40:05,VALID,915.318,VALID,0,VALID,97.1757,VALID,0,VALID,20.4618,VALID,32,VALID,0,
2009-09-30, 02:41:05,VALID,915.368,VALID,0,VALID,97.2138,VALID,0,VALID,20.4603,VALID,32,VALID,0,
2009-09-30, 02:42:05,VALID,915.337,VALID,0.2,VALID,97.2214,VALID,0,VALID,20.4993,VALID,32,VALID,0.173828,
2009-09-30, 02:43:05,VALID,915.305,VALID,0,VALID,97.1604,VALID,0,VALID,20.4798,VALID,32,VALID,0.0046875,
2009-09-30, 02:44:05,VALID,915.337,VALID,0.2,VALID,97.1986,VALID,0,VALID,20.5204,VALID,32,VALID,0.328516,
2009-09-30, 02:45:05,VALID,915.335,VALID,0,VALID,97.1528,VALID,0,VALID,20.4618,VALID,32,VALID,0.544922,
2009-09-30, 02:46:05,VALID,915.343,VALID,0.2,VALID,97.0842,VALID,0,VALID,20.4618,VALID,32,VALID,0.847266,
2009-09-30, 02:47:05,VALID,915.327,VALID,0,VALID,97.1147,VALID,0,VALID,20.4228,VALID,32,VALID,0.675391,
2009-09-30, 02:48:04,VALID,915.348,VALID,0,VALID,97.1833,VALID,0,VALID,20.4618,VALID,32,VALID,0.735156,
2009-09-30, 02:49:04,VALID,915.34,VALID,0.2,VALID,97.2519,VALID,0,VALID,20.5009,VALID,32,VALID,0.420312,
2009-09-30, 02:50:04,VALID,915.347,VALID,0,VALID,97.1299,VALID,0,VALID,20.4813,VALID,32,VALID,0.352734,
2009-09-30, 02:51:04,VALID,915.361,VALID,0,VALID,97.1833,VALID,0,VALID,20.4798,VALID,32,VALID,0.0324219,
2009-09-30, 02:52:04,VALID,915.369,VALID,0,VALID,97.1604,VALID,0,VALID,20.4798,VALID,32,VALID,0.446094,
2009-09-30, 02:53:04,VALID,915.308,VALID,0,VALID,97.1757,VALID,0,VALID,20.4798,VALID,32,VALID,0.671875,
2009-09-30, 02:54:04,VALID,915.305,VALID,0.2,VALID,97.2062,VALID,0,VALID,20.5009,VALID,32,VALID,0.427344,
2009-09-30, 02:55:04,VALID,915.314,VALID,0,VALID,97.0308,VALID,0,VALID,20.4213,VALID,32,VALID,0.412891,
2009-09-30, 02:56:04,VALID,915.291,VALID,0,VALID,97.0613,VALID,0,VALID,20.4033,VALID,32,VALID,0.657422,
2009-09-30, 02:57:04,VALID,915.255,VALID,0.2,VALID,97.1071,VALID,0,VALID,20.3823,VALID,32,VALID,1.06875,
2009-09-30, 02:58:04,VALID,915.27,VALID,0,VALID,97.1299,VALID,0,VALID,20.4033,VALID,32,VALID,1.09727,
2009-09-30, 02:59:04,VALID,915.238,VALID,0,VALID,97.1376,VALID,0,VALID,20.4228,VALID,32,VALID,0.892578,
2009-09-30, 03:00:04,VALID,915.233,VALID,0,VALID,97.1147,VALID,0,VALID,20.4033,VALID,32,VALID,0.436328,
2009-09-30, 03:01:04,VALID,915.268,VALID,0,VALID,97.1223,VALID,0,VALID,20.3838,VALID,32,VALID,0.422656,
2009-09-30, 03:02:04,VALID,915.259,VALID,0,VALID,97.1528,VALID,0,VALID,20.4033,VALID,32,VALID,0.525781,
2009-09-30, 03:03:04,VALID,915.279,VALID,0,VALID,97.1452,VALID,0,VALID,20.3628,VALID,32,VALID,0.633594,
2009-09-30, 03:04:04,VALID,915.246,VALID,0,VALID,97.1833,VALID,0,VALID,20.4033,VALID,32,VALID,0.46875,
2009-09-30, 03:05:04,VALID,915.232,VALID,0,VALID,97.229,VALID,0,VALID,20.4228,VALID,32,VALID,0.225,
2009-09-30, 03:06:04,VALID,915.276,VALID,0,VALID,97.1604,VALID,0,VALID,20.4228,VALID,32,VALID,0.852734,
2009-09-30, 03:07:04,VALID,915.254,VALID,0.2,VALID,97.2138,VALID,0,VALID,20.4228,VALID,32,VALID,0.108203,
2009-09-30, 03:08:04,VALID,915.241,VALID,0,VALID,97.1223,VALID,0,VALID,20.4033,VALID,32,VALID,0.723437,
2009-09-30, 03:09:04,VALID,915.246,VALID,0,VALID,97.1452,VALID,0,VALID,20.4033,VALID,32,VALID,0.335547,
2009-09-30, 03:10:04,VALID,915.251,VALID,0,VALID,97.1681,VALID,0,VALID,20.4033,VALID,280,VALID,1.0668,
2009-09-30, 03:11:04,VALID,915.298,VALID,0.2,VALID,97.1604,VALID,0,VALID,20.3823,VALID,249,VALID,0.703906,
2009-09-30, 03:12:04,VALID,915.279,VALID,0,VALID,97.1604,VALID,0,VALID,20.3628,VALID,249,VALID,0.835547,
2009-09-30, 03:13:04,VALID,915.281,VALID,0,VALID,97.2214,VALID,0,VALID,20.3823,VALID,249,VALID,0.395703,
2009-09-30, 03:14:04,VALID,915.292,VALID,0,VALID,97.2595,VALID,0,VALID,20.4213,VALID,249,VALID,0.169141,
2009-09-30, 03:15:04,VALID,915.297,VALID,0.2,VALID,97.1986,VALID,0,VALID,20.4408,VALID,248,VALID,0.371484,
2009-09-30, 03:16:04,VALID,915.278,VALID,0,VALID,97.1604,VALID,0,VALID,20.4423,VALID,249,VALID,0.85,
2009-09-30, 03:17:04,VALID,915.285,VALID,0,VALID,97.1833,VALID,0,VALID,20.4018,VALID,249,VALID,0.519141,
2009-09-30, 03:18:04,VALID,915.262,VALID,0,VALID,97.1299,VALID,0,VALID,20.3823,VALID,249,VALID,0.432422,
2009-09-30, 03:19:04,VALID,915.312,VALID,0.2,VALID,97.1681,VALID,0,VALID,20.4228,VALID,248,VALID,0.416016,
2009-09-30, 03:20:04,VALID,915.309,VALID,0,VALID,97.0003,VALID,0,VALID,20.3238,VALID,259,VALID,2.19609,
2009-09-30, 03:21:04,VALID,915.302,VALID,0,VALID,97.0385,VALID,0,VALID,20.3253,VALID,246,VALID,1.44687,
2009-09-30, 03:22:04,VALID,915.334,VALID,0,VALID,97.0156,VALID,0,VALID,20.3253,VALID,253,VALID,1.86641,
2009-09-30, 03:23:04,VALID,915.339,VALID,0.2,VALID,97.008,VALID,0,VALID,20.3253,VALID,229,VALID,1.08867,
2009-09-30, 03:24:04,VALID,915.294,VALID,0,VALID,96.9927,VALID,0,VALID,20.2848,VALID,248,VALID,2.54023,
2009-09-30, 03:25:04,VALID,915.306,VALID,0.2,VALID,96.9851,VALID,0,VALID,20.2653,VALID,223,VALID,0.825,
2009-09-30, 03:26:04,VALID,915.311,VALID,0,VALID,97.0156,VALID,0,VALID,20.3058,VALID,271,VALID,1.41719,
2009-09-30, 03:27:04,VALID,915.353,VALID,0.2,VALID,97.0308,VALID,0,VALID,20.2653,VALID,267,VALID,0.475391,
2009-09-30, 03:28:04,VALID,915.328,VALID,0.2,VALID,97.1147,VALID,0,VALID,20.3238,VALID,267,VALID,0.186719,
2009-09-30, 03:29:04,VALID,915.341,VALID,0,VALID,97.1604,VALID,0,VALID,20.3838,VALID,267,VALID,0,
2009-09-30, 03:30:04,VALID,915.339,VALID,0.2,VALID,97.1452,VALID,0,VALID,20.3838,VALID,267,VALID,0.127344,
2009-09-30, 03:31:04,VALID,915.356,VALID,0,VALID,97.069,VALID,0,VALID,20.3448,VALID,212,VALID,1.42383,
2009-09-30, 03:32:04,VALID,915.343,VALID,0.2,VALID,97.0385,VALID,0,VALID,20.3448,VALID,245,VALID,0.978516,
2009-09-30, 03:33:04,VALID,915.339,VALID,0,VALID,97.0613,VALID,0,VALID,20.3253,VALID,292,VALID,0.80625,
2009-09-30, 03:34:04,VALID,915.345,VALID,0.2,VALID,97.0994,VALID,0,VALID,20.3043,VALID,291,VALID,0.816406,
2009-09-30, 03:35:04,VALID,915.321,VALID,0,VALID,97.0918,VALID,0,VALID,20.3253,VALID,251,VALID,0.955859,
2009-09-30, 03:36:04,VALID,915.308,VALID,0.2,VALID,97.0766,VALID,0,VALID,20.3253,VALID,282,VALID,0.476563,
2009-09-30, 03:37:04,VALID,915.297,VALID,0,VALID,97.1299,VALID,0,VALID,20.3238,VALID,282,VALID,0.520703,
2009-09-30, 03:38:04,VALID,915.296,VALID,0.2,VALID,97.1452,VALID,0,VALID,20.3238,VALID,51,VALID,0.753906,
2009-09-30, 03:39:04,VALID,915.288,VALID,0,VALID,97.1147,VALID,0,VALID,20.3448,VALID,327,VALID,0.510547,
2009-09-30, 03:40:04,VALID,915.31,VALID,0.2,VALID,97.0842,VALID,0,VALID,20.3043,VALID,252,VALID,1.68047,
2009-09-30, 03:41:04,VALID,915.284,VALID,0,VALID,97.1071,VALID,0,VALID,20.3253,VALID,271,VALID,0.992969,
2009-09-30, 03:42:04,VALID,915.25,VALID,0.2,VALID,97.1376,VALID,0,VALID,20.3253,VALID,324,VALID,1.09766,
2009-09-30, 03:43:04,VALID,915.279,VALID,0,VALID,97.1452,VALID,0,VALID,20.3253,VALID,330,VALID,0.986328,
2009-09-30, 03:44:04,VALID,915.274,VALID,0.2,VALID,97.1376,VALID,0,VALID,20.3253,VALID,245,VALID,1.19844,
2009-09-30, 03:45:04,VALID,915.261,VALID,0,VALID,97.1376,VALID,0,VALID,20.3253,VALID,224,VALID,0.998828,
2009-09-30, 03:46:04,VALID,915.312,VALID,0.2,VALID,97.1986,VALID,0,VALID,20.3238,VALID,243,VALID,0.873828,